237P/LINEAR (2023)

Japanese version
Home page
Updated on March 5, 2023

---------------------------------------------------------------------

* Profile

* Pictures

* Orbital Elements

Epoch 2023 Feb. 25.0 TT = JDT 2460000.5
T 2023 May 14.68621 TT                                  Rudenko
q   1.9870452            (2000.0)            P               Q
n   0.14981622     Peri.   25.26142     -0.00071917     +0.97546688
a   3.5109946      Node   245.35909     -0.95368164     -0.06689242
e   0.4340506      Incl.   14.01643     -0.30081690     +0.20973737
P   6.58
>From 547 observations 2002 June 18-2023 Jan. 16, mean residual 0".8.

* Finding Charts

* Magnitudes Graph

        H = 15.0  G = 0.15               [    ,-194]  (             - 2022 Nov.  1)
        m1 = -12   + 5 log d + 75 log r  [-194,   0]  (2022 Nov.  1 - 2023 May  14)
        m1 =   0.0 + 5 log d + 35 log r  [   0, 380]  (2023 May  14 - 2024 May  28)
        H = 15.0  G = 0.15               [ 380,    ]  (2024 May  28 -             )

---------------------------------------------------------------------

The orbital elements are published on M.P.E.C. 2023-B57.
The charts are made with StellaNavigator Ver.10 (AstroArts).
The magnitudes graphs are made with Comet for Windows.

---------------------------------------------------------------------

Copyright(C) Seiichi Yoshida (comet@aerith.net). All rights reserved.